Time,TemperatureF,DewpointF,PressureIn,WindDirection,WindDirectionDegrees,WindSpeedMPH,WindSpeedGustMPH,Humidity,HourlyPrecipIn,Conditions,Clouds,dailyrainin,SoftwareType,DateUTC
2013-08-27 00:08:00,65.8,65.0,30.16,NNE,24,0.0,0.0,96,0.00,,,0.00,weatherlink.com 1.10,2013-08-27 04:08:00,
2013-08-27 00:23:00,65.4,64.0,30.15,NNE,24,0.0,0.0,96,0.00,,,0.00,weatherlink.com 1.10,2013-08-27 04:23:00,
2013-08-27 00:38:00,65.1,64.0,30.16,NNE,24,0.0,0.0,97,0.00,,,0.00,weatherlink.com 1.10,2013-08-27 04:38:00,
2013-08-27 00:53:00,65.2,64.0,30.16,NNE,24,0.0,0.0,97,0.00,,,0.00,weatherlink.com 1.10,2013-08-27 04:53:00,
2013-08-27 01:08:00,65.1,64.0,30.16,NNE,24,0.0,0.0,97,0.00,,,0.00,weatherlink.com 1.10,2013-08-27 05:08:00,
2013-08-27 01:23:00,64.9,64.0,30.15,NNE,24,0.0,0.0,97,0.00,,,0.00,weatherlink.com 1.10,2013-08-27 05:23:00,
2013-08-27 01:38:00,64.7,64.0,30.15,NNE,24,0.0,0.0,97,0.00,,,0.00,weatherlink.com 1.10,2013-08-27 05:38:00,
2013-08-27 01:53:00,64.4,64.0,30.15,NNE,24,0.0,0.0,97,0.00,,,0.00,weatherlink.com 1.10,2013-08-27 05:53:00,
2013-08-27 02:08:00,64.2,63.0,30.15,NNE,24,0.0,0.0,97,0.00,,,0.00,weatherlink.com 1.10,2013-08-27 06:08:00,
2013-08-27 02:23:00,64.0,64.0,30.15,NNE,24,0.0,0.0,98,0.00,,,0.00,weatherlink.com 1.10,2013-08-27 06:23:00,
2013-08-27 02:38:00,63.6,63.0,30.14,NNE,24,0.0,0.0,97,0.00,,,0.00,weatherlink.com 1.10,2013-08-27 06:38:00,
2013-08-27 02:53:00,63.4,63.0,30.14,NNE,24,0.0,0.0,98,0.00,,,0.00,weatherlink.com 1.10,2013-08-27 06:53:00,
2013-08-27 03:23:00,62.9,62.0,30.14,NNE,24,0.0,0.0,98,0.00,,,0.00,weatherlink.com 1.10,2013-08-27 07:23:00,
2013-08-27 03:39:00,63.0,63.0,30.14,NNE,24,0.0,0.0,98,0.00,,,0.00,weatherlink.com 1.10,2013-08-27 07:39:00,
2013-08-27 03:54:00,62.7,62.0,30.13,NNE,24,0.0,0.0,98,0.00,,,0.00,weatherlink.com 1.10,2013-08-27 07:54:00,
2013-08-27 04:09:00,62.7,62.0,30.13,NNE,24,0.0,0.0,98,0.00,,,0.00,weatherlink.com 1.10,2013-08-27 08:09:00,
2013-08-27 04:24:00,62.6,62.0,30.13,NNE,24,0.0,0.0,98,0.00,,,0.00,weatherlink.com 1.10,2013-08-27 08:24:00,
2013-08-27 04:39:00,62.6,62.0,30.13,NNE,24,0.0,0.0,98,0.00,,,0.00,weatherlink.com 1.10,2013-08-27 08:39:00,
2013-08-27 04:54:00,62.6,62.0,30.13,NNE,24,0.0,0.0,98,0.00,,,0.00,weatherlink.com 1.10,2013-08-27 08:54:00,
2013-08-27 05:09:00,62.7,62.0,30.13,NNE,24,0.0,0.0,98,0.00,,,0.00,weatherlink.com 1.10,2013-08-27 09:09:00,
2013-08-27 05:24:00,62.6,62.0,30.13,NNE,24,0.0,0.0,98,0.00,,,0.00,weatherlink.com 1.10,2013-08-27 09:24:00,
2013-08-27 05:39:00,62.5,62.0,30.13,NNE,24,0.0,0.0,98,0.00,,,0.00,weatherlink.com 1.10,2013-08-27 09:39:00,
2013-08-27 05:54:00,62.7,62.0,30.14,NNE,24,0.0,0.0,98,0.00,,,0.00,weatherlink.com 1.10,2013-08-27 09:54:00,
2013-08-27 06:09:00,62.7,63.0,30.14,NNE,24,0.0,0.0,99,0.00,,,0.00,weatherlink.com 1.10,2013-08-27 10:09:00,
2013-08-27 06:24:00,62.8,63.0,30.13,NNE,24,0.0,0.0,99,0.00,,,0.00,weatherlink.com 1.10,2013-08-27 10:24:00,
2013-08-27 06:39:00,62.8,63.0,30.13,NNE,24,0.0,0.0,99,0.00,,,0.00,weatherlink.com 1.10,2013-08-27 10:39:00,
2013-08-27 06:54:00,62.8,63.0,30.14,NNE,24,0.0,0.0,99,0.00,,,0.00,weatherlink.com 1.10,2013-08-27 10:54:00,
2013-08-27 07:09:00,62.5,62.0,30.13,NNE,24,0.0,0.0,98,0.00,,,0.00,weatherlink.com 1.10,2013-08-27 11:09:00,
2013-08-27 07:24:00,62.2,62.0,30.14,NNE,24,0.0,0.0,98,0.00,,,0.00,weatherlink.com 1.10,2013-08-27 11:24:00,
2013-08-27 07:39:00,62.2,62.0,30.14,NNE,24,0.0,0.0,99,0.00,,,0.00,weatherlink.com 1.10,2013-08-27 11:39:00,
2013-08-27 07:54:00,62.6,62.0,30.14,NNE,24,0.0,0.0,99,0.00,,,0.00,weatherlink.com 1.10,2013-08-27 11:54:00,
2013-08-27 08:09:00,63.0,63.0,30.14,NNE,24,0.0,0.0,99,0.00,,,0.00,weatherlink.com 1.10,2013-08-27 12:09:00,
2013-08-27 08:24:00,63.6,63.0,30.14,NNE,25,0.0,0.0,99,0.00,,,0.00,weatherlink.com 1.10,2013-08-27 12:24:00,
2013-08-27 08:39:00,64.3,64.0,30.15,NNE,25,0.0,0.0,99,0.00,,,0.00,weatherlink.com 1.10,2013-08-27 12:39:00,
2013-08-27 08:54:00,64.8,65.0,30.15,NNE,25,0.0,0.0,99,0.00,,,0.00,weatherlink.com 1.10,2013-08-27 12:54:00,
2013-08-27 09:09:00,65.9,66.0,30.14,NNE,25,0.0,0.0,99,0.00,,,0.00,weatherlink.com 1.10,2013-08-27 13:09:00,
2013-08-27 09:24:00,67.3,67.0,30.14,NNE,25,0.0,0.0,97,0.00,,,0.00,weatherlink.com 1.10,2013-08-27 13:24:00,
2013-08-27 09:39:00,68.9,67.0,30.14,NNE,25,0.0,0.0,94,0.00,,,0.00,weatherlink.com 1.10,2013-08-27 13:39:00,
2013-08-27 09:54:00,72.1,68.0,30.14,NNE,25,0.0,0.0,87,0.00,,,0.00,weatherlink.com 1.10,2013-08-27 13:54:00,
2013-08-27 10:10:00,75.1,69.0,30.14,NNE,23,0.0,0.0,81,0.00,,,0.00,weatherlink.com 1.10,2013-08-27 14:10:00,
2013-08-27 10:24:00,76.3,70.0,30.14,NNE,23,0.0,0.0,80,0.00,,,0.00,weatherlink.com 1.10,2013-08-27 14:24:00,
2013-08-27 10:39:00,77.4,69.0,30.14,NNE,18,0.0,0.0,75,0.00,,,0.00,weatherlink.com 1.10,2013-08-27 14:39:00,
2013-08-27 10:54:00,78.9,70.0,30.14,NNE,12,0.0,1.0,74,0.00,,,0.00,weatherlink.com 1.10,2013-08-27 14:54:00,
2013-08-27 11:09:00,80.8,70.0,30.14,ESE,121,0.0,2.0,70,0.00,,,0.00,weatherlink.com 1.10,2013-08-27 15:09:00,
2013-08-27 11:24:00,82.5,71.0,30.13,ESE,119,0.0,1.0,68,0.00,,,0.00,weatherlink.com 1.10,2013-08-27 15:24:00,
2013-08-27 11:39:00,82.0,71.0,30.14,ESE,103,0.0,1.0,70,0.00,,,0.00,weatherlink.com 1.10,2013-08-27 15:39:00,
2013-08-27 11:54:00,83.4,72.0,30.13,SSE,150,0.0,0.0,68,0.00,,,0.00,weatherlink.com 1.10,2013-08-27 15:54:00,
2013-08-27 12:09:00,83.6,71.0,30.13,North,4,0.0,3.0,65,0.00,,,0.00,weatherlink.com 1.10,2013-08-27 16:09:00,
2013-08-27 12:24:00,84.8,72.0,30.13,ENE,65,0.0,2.0,65,0.00,,,0.00,weatherlink.com 1.10,2013-08-27 16:24:00,
2013-08-27 12:40:00,84.4,72.0,30.12,East,83,0.0,2.0,67,0.00,,,0.00,weatherlink.com 1.10,2013-08-27 16:40:00,
2013-08-27 12:55:00,84.7,71.0,30.11,East,100,0.0,1.0,64,0.00,,,0.00,weatherlink.com 1.10,2013-08-27 16:55:00,
2013-08-27 13:10:00,84.7,70.0,30.11,ENE,68,0.0,3.0,61,0.00,,,0.00,weatherlink.com 1.10,2013-08-27 17:10:00,
2013-08-27 13:25:00,82.9,71.0,30.10,ENE,62,0.0,1.0,68,0.00,,,0.00,weatherlink.com 1.10,2013-08-27 17:25:00,
2013-08-27 13:40:00,82.4,70.0,30.10,ESE,103,0.0,0.0,67,0.00,,,0.00,weatherlink.com 1.10,2013-08-27 17:40:00,
2013-08-27 13:56:00,84.0,69.0,30.09,East,90,2.0,2.0,61,0.00,,,0.00,weatherlink.com 1.10,2013-08-27 17:56:00,
2013-08-27 14:10:00,85.5,68.0,30.09,NE,44,0.0,2.0,57,0.00,,,0.00,weatherlink.com 1.10,2013-08-27 18:10:00,
2013-08-27 14:25:00,83.6,70.0,30.09,ENE,67,0.0,2.0,64,0.00,,,0.00,weatherlink.com 1.10,2013-08-27 18:25:00,
2013-08-27 14:40:00,85.0,69.0,30.08,NNE,16,1.0,3.0,58,0.00,,,0.00,weatherlink.com 1.10,2013-08-27 18:40:00,
2013-08-27 14:55:00,85.1,71.0,30.07,North,9,0.0,1.0,63,0.00,,,0.00,weatherlink.com 1.10,2013-08-27 18:55:00,
2013-08-27 15:10:00,86.8,68.0,30.07,NNW,330,0.0,4.0,53,0.00,,,0.00,weatherlink.com 1.10,2013-08-27 19:10:00,
2013-08-27 15:25:00,87.8,69.0,30.06,West,262,0.0,2.0,54,0.00,,,0.00,weatherlink.com 1.10,2013-08-27 19:25:00,
2013-08-27 15:40:00,88.1,69.0,30.05,South,186,0.0,4.0,53,0.00,,,0.00,weatherlink.com 1.10,2013-08-27 19:40:00,
2013-08-27 15:55:00,87.8,72.0,30.05,ESE,122,0.0,2.0,59,0.00,,,0.00,weatherlink.com 1.10,2013-08-27 19:55:00,
2013-08-27 16:10:00,88.0,68.0,30.05,NNE,20,0.0,2.0,51,0.00,,,0.00,weatherlink.com 1.10,2013-08-27 20:10:00,
2013-08-27 16:25:00,88.3,68.0,30.04,North,351,0.0,1.0,52,0.00,,,0.00,weatherlink.com 1.10,2013-08-27 20:25:00,
2013-08-27 16:40:00,88.3,69.0,30.04,ENE,64,0.0,2.0,53,0.00,,,0.00,weatherlink.com 1.10,2013-08-27 20:40:00,
2013-08-27 17:10:00,88.2,69.0,30.04,East,86,0.0,1.0,54,0.00,,,0.00,weatherlink.com 1.10,2013-08-27 21:10:00,
2013-08-27 17:55:00,85.2,74.0,30.04,NNW,340,0.0,0.0,69,0.00,,,0.00,weatherlink.com 1.10,2013-08-27 21:55:00,
2013-08-27 18:10:00,84.1,72.0,30.04,NNW,340,0.0,0.0,67,0.00,,,0.00,weatherlink.com 1.10,2013-08-27 22:10:00,
2013-08-27 18:25:00,82.8,73.0,30.03,NNW,341,0.0,1.0,72,0.00,,,0.00,weatherlink.com 1.10,2013-08-27 22:25:00,
2013-08-27 18:40:00,82.2,74.0,30.04,NNW,341,0.0,1.0,75,0.00,,,0.00,weatherlink.com 1.10,2013-08-27 22:40:00,
2013-08-27 18:55:00,81.4,74.0,30.04,NNW,342,0.0,1.0,77,0.00,,,0.00,weatherlink.com 1.10,2013-08-27 22:55:00,
2013-08-27 19:10:00,80.1,73.0,30.03,NNW,342,0.0,0.0,78,0.00,,,0.00,weatherlink.com 1.10,2013-08-27 23:10:00,
2013-08-27 19:25:00,79.1,73.0,30.03,NNW,342,0.0,1.0,81,0.00,,,0.00,weatherlink.com 1.10,2013-08-27 23:25:00,
2013-08-27 19:40:00,78.0,73.0,30.03,NNW,342,0.0,0.0,85,0.00,,,0.00,weatherlink.com 1.10,2013-08-27 23:40:00,
2013-08-27 19:55:00,77.2,73.0,30.03,NNW,348,0.0,1.0,87,0.00,,,0.00,weatherlink.com 1.10,2013-08-27 23:55:00,
2013-08-27 20:10:00,76.5,73.0,30.03,North,355,0.0,1.0,88,0.00,,,0.00,weatherlink.com 1.10,2013-08-28 00:10:00,
2013-08-27 20:25:00,76.0,73.0,30.03,North,1,0.0,0.0,89,0.00,,,0.00,weatherlink.com 1.10,2013-08-28 00:25:00,
2013-08-27 20:40:00,75.1,72.0,30.03,North,1,0.0,0.0,91,0.00,,,0.00,weatherlink.com 1.10,2013-08-28 00:40:00,
2013-08-27 20:55:00,74.6,73.0,30.04,North,4,0.0,1.0,93,0.00,,,0.00,weatherlink.com 1.10,2013-08-28 00:55:00,
2013-08-27 21:10:00,74.3,72.0,30.03,North,4,0.0,0.0,93,0.00,,,0.00,weatherlink.com 1.10,2013-08-28 01:10:00,
2013-08-27 21:25:00,73.9,72.0,30.04,North,6,0.0,0.0,93,0.00,,,0.00,weatherlink.com 1.10,2013-08-28 01:25:00,
2013-08-27 21:40:00,73.3,72.0,30.04,North,6,0.0,1.0,94,0.00,,,0.00,weatherlink.com 1.10,2013-08-28 01:40:00,
2013-08-27 21:55:00,73.1,71.0,30.05,North,6,0.0,0.0,94,0.00,,,0.00,weatherlink.com 1.10,2013-08-28 01:55:00,
2013-08-27 22:10:00,72.9,71.0,30.05,North,6,0.0,1.0,95,0.00,,,0.00,weatherlink.com 1.10,2013-08-28 02:10:00,
2013-08-27 22:28:00,73.0,71.0,30.05,North,7,0.0,0.0,93,0.00,,,0.00,weatherlink.com 1.10,2013-08-28 02:28:00,
2013-08-27 22:40:00,73.1,71.0,30.06,North,7,0.0,1.0,93,0.00,,,0.00,weatherlink.com 1.10,2013-08-28 02:40:00,
2013-08-27 22:55:00,72.6,70.0,30.06,North,7,0.0,0.0,92,0.00,,,0.00,weatherlink.com 1.10,2013-08-28 02:55:00,
2013-08-27 23:10:00,71.9,70.0,30.06,North,7,0.0,0.0,94,0.00,,,0.00,weatherlink.com 1.10,2013-08-28 03:10:00,
2013-08-27 23:25:00,71.4,70.0,30.06,North,7,0.0,0.0,95,0.00,,,0.00,weatherlink.com 1.10,2013-08-28 03:25:00,
2013-08-27 23:40:00,70.9,70.0,30.06,North,7,0.0,0.0,95,0.00,,,0.00,weatherlink.com 1.10,2013-08-28 03:40:00,
2013-08-27 23:55:00,70.7,70.0,30.05,NNE,12,0.0,0.0,96,0.00,,,0.00,weatherlink.com 1.10,2013-08-28 03:55:00,